Voltar ao catálogo

DELTA 1 DEB

AtivoSSO
NORAD 21433·DEBRIS·🇺🇸 United States

Lançado Jun 12, 1975 de Vandenberg Space Force Base

Loading…

Próximas Passagens (próximas 24 horas)

TLE

AtualizadoSource: Space-Track

Época: Sep 14, 2026, 10:06 UTC

1 21433U 75052DR  26257.42133567  .00000108  00000-0  23529-3 0  9998
2 21433  99.7511  57.8931 0058944  21.9913   6.9409 13.50364216740151

Acompanhe DELTA 1 DEB em tempo real com AllMySat

Download on the App Store